Theta_e
329 330 330 331 332 330 330 330 332 333 332 331 331 330 332 332 332 332 334 335 338 342 344 342 345 344 344 345 347 347 345 344 336 340 340 339 340 340 337 335 336 332 329 327
331 330 331 332 329 329 329 332 332 331 331 331 330 331 331 333 334 333 334 337 338 341 345 347 343 344 344 345 345 345 344 344 340 340 341 340 336 333 335 333 332 329 330 328
330 330 331 330 328 330 332 333 332 331 330 330 332 332 333 334 336 336 337 339 339 340 343 342 341 336 345 345 345 345 344 343 338 337 337 340 339 338 334 332 327 327 325 324
329 330 329 329 329 330 330 330 329 328 329 330 331 335 336 336 336 336 336 336 335 334 333 337 333 344 343 343 345 344 343 337 338 337 334 337 332 331 334 327 324 322 322 322
329 329 328 329 332 331 328 328 329 331 332 332 334 334 338 335 336 334 334 332 332 333 334 333 334 337 336 333 338 341 338 336 341 331 324 326 335 334 329 324 323 322 323 323
329 330 330 331 331 329 333 333 332 333 333 337 335 332 337 335 332 330 329 330 330 330 332 331 334 333 330 332 332 339 338 338 335 328 328 323 322 324 322 321 322 323 323 322
331 329 329 329 329 333 332 333 335 334 334 335 332 333 335 331 328 328 328 328 328 328 328 332 331 332 333 333 332 336 340 340 340 340 338 335 332 330 325 324 322 324 321 320
332 330 331 330 329 330 332 335 334 334 337 335 334 334 332 331 330 329 329 329 329 330 331 331 333 333 332 332 333 335 334 333 333 334 332 331 330 329 323 325 323 321 321 320
334 334 332 330 329 331 333 334 334 337 337 335 332 333 332 331 330 329 329 329 330 330 330 332 332 329 329 328 332 333 330 328 327 329 330 329 329 327 323 323 321 321 320 317
336 334 332 331 330 332 332 333 336 335 338 335 330 333 332 332 331 331 330 329 330 330 330 330 332 331 332 331 328 329 329 328 327 327 327 328 326 323 320 322 321 319 317 316
331 334 334 333 335 336 336 334 334 331 333 332 329 333 332 332 333 333 329 331 331 330 329 328 328 328 328 328 328 328 328 327 327 326 326 324 323 321 322 321 318 316 314 312
333 336 337 337 333 332 332 336 337 333 333 333 334 332 330 330 330 331 331 330 329 329 328 328 328 327 328 328 329 329 328 328 327 326 324 322 322 322 320 317 316 313 312 311
342 333 334 338 338 333 333 333 332 335 336 333 334 331 331 332 332 330 330 329 329 328 328 328 327 327 327 329 328 325 324 325 324 324 323 323 321 319 316 315 314 311 311 309
336 339 338 334 334 333 336 334 334 335 336 332 330 330 332 334 332 328 331 329 328 328 327 327 326 327 327 327 327 325 324 324 325 323 323 320 317 316 315 313 310 309 309 309
338 337 332 335 334 333 331 332 330 331 330 331 329 331 331 331 332 330 330 328 328 328 327 327 327 327 325 326 326 324 324 325 323 322 320 317 316 315 311 310 309 308 308 307
337 338 336 334 330 333 335 334 331 330 331 329 330 329 331 330 328 329 329 329 329 329 328 327 326 324 323 325 323 322 325 324 322 320 317 317 315 310 310 309 308 309 308 309
337 337 339 334 332 335 335 333 331 330 330 330 330 330 330 331 331 329 328 326 324 328 327 325 323 321 323 323 323 323 324 322 320 318 317 315 312 311 310 309 311 309 308 308
335 336 338 335 334 333 332 332 332 332 332 332 330 330 329 331 332 330 329 325 326 328 325 323 320 320 323 324 324 324 322 320 318 316 315 313 312 310 310 311 311 309 309 309
334 339 335 335 335 332 334 336 336 336 332 332 332 331 330 331 332 331 329 328 327 325 324 322 319 320 323 324 324 323 321 319 317 316 313 312 311 310 310 311 311 310 310 309
334 336 336 334 331 330 336 334 330 332 331 332 331 331 330 330 332 331 329 327 326 324 322 319 319 320 325 324 324 321 320 317 316 315 312 311 310 310 310 311 311 310 310 309
339 340 336 335 333 335 332 330 328 328 338 333 331 331 332 332 330 329 327 326 325 323 320 319 320 323 325 323 322 321 318 317 317 312 312 311 309 310 310 311 310 310 310 310
338 338 335 336 335 336 330 330 333 337 331 327 331 332 331 330 328 327 326 324 324 322 320 320 321 324 323 322 321 319 317 317 315 313 311 310 309 310 310 310 310 309 311 311
334 336 335 332 329 327 326 329 330 332 330 331 332 331 329 328 327 326 324 323 324 321 319 320 321 323 323 321 319 318 317 317 314 312 310 309 310 309 310 311 310 310 310 311
330 331 330 332 326 326 326 326 326 330 331 332 331 329 328 326 325 324 323 324 322 321 319 321 321 322 322 320 318 317 317 316 312 311 311 310 309 310 309 308 310 309 310 310
329 329 330 329 327 325 326 327 328 332 330 329 329 328 326 324 324 323 323 322 320 318 319 321 320 322 322 320 318 316 317 313 312 312 311 310 309 308 310 307 307 308 307 308
327 331 327 328 327 326 326 326 329 328 328 328 329 326 325 325 323 322 322 319 317 318 320 321 321 322 321 319 317 316 316 314 312 312 312 309 308 309 311 309 309 305 305 305
Wind_Speed
17 13 12 3 10 9 8 8 13 11 6 5 12 16 3 5 9 8 9 10 7 3 20 23 15 11 9 10 10 9 7 7 5 2 5 10 8 10 10 12 3 13 17 16
16 11 11 3 6 11 8 16 13 10 15 9 13 13 9 11 8 5 9 4 7 3 20 17 2 11 10 8 7 6 7 6 5 1 6 10 13 11 11 11 11 14 14 15
12 11 1 6 9 8 11 8 12 15 14 16 13 13 3 6 8 4 2 9 6 6 19 21 24 14 18 15 9 7 5 6 5 4 8 10 12 11 12 3 14 8 19 23
9 8 4 7 9 4 5 9 13 15 12 12 1 10 13 9 23 11 6 7 4 6 12 19 5 17 14 13 16 8 4 4 2 6 4 8 12 11 10 14 13 20 22 16
3 5 1 8 9 6 13 15 14 12 12 14 11 9 7 14 12 17 9 3 2 5 10 3 10 7 31 7 7 9 4 6 9 7 7 8 7 12 16 14 17 18 11 13
14 6 1 12 4 3 12 20 17 14 7 3 14 8 9 5 3 5 12 10 8 10 11 8 3 6 13 15 7 9 7 6 5 9 11 13 13 15 15 14 20 14 18 20
6 8 2 6 8 2 8 11 7 3 5 5 9 8 8 9 11 11 10 12 12 15 17 12 7 3 7 11 8 1 2 2 7 9 10 9 11 16 11 11 15 20 23 24
5 10 6 4 4 8 9 9 8 11 9 10 16 8 8 11 11 10 10 15 15 20 18 14 24 24 11 37 6 5 7 5 7 10 8 10 12 11 14 19 21 23 17 20
6 10 11 2 5 1 5 8 15 8 2 1 6 14 14 5 6 9 18 21 22 20 14 14 10 12 26 18 9 5 6 9 11 11 13 15 11 14 16 18 23 20 23 25
8 4 4 8 1 13 6 10 5 6 3 8 12 7 5 11 15 15 18 19 20 20 24 22 13 10 7 10 14 6 10 13 15 16 12 13 17 19 23 20 24 23 23 23
7 4 0 3 7 6 22 1 6 3 9 8 8 6 18 10 10 10 12 18 17 20 18 20 21 22 17 15 13 18 22 21 15 14 17 18 19 19 16 24 25 25 27 30
4 3 8 3 12 7 14 5 7 4 6 8 10 4 11 7 8 10 13 16 17 13 14 13 15 24 25 23 21 22 23 18 17 21 17 19 13 17 25 26 26 29 30 26
9 2 6 15 14 8 4 1 2 11 3 6 7 4 3 16 12 21 9 13 19 31 19 20 21 24 25 24 23 25 22 19 17 16 13 12 18 24 26 23 26 29 25 23
3 6 9 10 3 5 7 17 16 7 3 8 10 13 13 15 13 23 31 14 19 17 16 24 25 23 22 23 23 23 20 14 14 13 15 19 22 20 20 26 26 24 22 19
2 6 11 18 18 12 9 17 9 10 10 7 10 14 14 13 3 10 8 20 29 24 23 24 22 23 23 23 22 21 17 15 13 13 16 17 14 18 24 21 23 23 20 14
3 5 8 9 15 9 17 22 15 7 5 8 13 11 14 17 26 34 33 30 26 22 22 21 23 25 24 20 20 19 13 12 14 14 15 14 21 20 20 18 19 21 16 12
1 5 8 10 9 2 4 9 8 9 10 11 11 13 18 15 17 23 23 24 22 19 20 23 23 24 19 20 18 15 11 12 14 15 13 19 19 16 16 16 18 17 15 14
3 5 6 9 13 14 7 7 11 9 7 10 12 8 6 13 17 17 14 14 10 12 17 18 22 21 16 17 15 11 12 12 14 12 14 16 15 15 15 16 18 16 15 15
8 7 7 8 12 11 9 14 13 15 9 12 9 13 22 11 15 12 10 8 7 11 15 18 19 19 16 14 13 11 13 14 13 13 14 15 14 13 14 14 13 15 14 13
6 5 7 9 10 14 5 2 10 17 3 11 10 7 8 12 6 9 9 9 10 13 15 18 18 17 15 13 11 13 12 13 11 13 13 15 12 13 14 14 14 13 14 13
3 6 4 10 2 8 14 3 7 8 3 7 9 11 11 9 9 6 7 10 11 15 16 17 17 14 12 11 11 12 12 11 11 13 11 15 12 12 12 13 12 13 13 14
7 5 4 10 0 4 3 5 5 4 7 5 4 7 6 4 3 6 9 12 13 14 16 16 17 12 11 10 10 13 11 10 13 11 12 15 14 14 13 15 12 11 10 12
3 2 4 2 4 4 6 10 5 5 6 4 4 5 2 1 7 9 11 12 13 14 15 15 15 12 11 9 12 11 10 10 11 12 12 17 12 12 13 14 13 12 10 11
7 10 2 6 6 5 6 3 3 1 1 4 3 1 1 6 6 9 11 12 13 13 14 14 13 11 9 10 11 10 9 13 12 11 10 12 12 9 11 9 10 9 8 10
4 5 2 3 8 9 5 4 6 5 3 1 1 2 3 4 7 10 11 12 12 13 13 13 12 9 8 10 10 9 10 13 10 12 10 11 13 10 10 10 12 10 11 10
6 6 4 3 9 5 4 3 4 3 3 5 5 3 1 4 7 9 9 11 12 12 12 12 10 8 8 9 10 8 10 10 10 14 10 12 12 9 9 9 7 11 11 12
Wind_Direction
210 254 259 352 311 339 307 307 28 11 18 331 337 298 291 317 22 337 354 305 293 246 140 146 191 174 148 170 173 179 209 231 279 209 296 305 293 315 325 340 288 285 305 286
242 234 288 181 349 326 301 342 25 342 338 318 302 303 318 65 47 10 340 298 275 253 121 160 150 162 177 185 173 188 192 238 280 172 304 268 298 323 328 309 289 319 296 301
271 272 246 321 313 269 40 320 349 321 318 296 300 259 191 90 119 110 29 10 349 350 164 187 188 167 210 179 188 188 212 216 242 222 238 294 310 320 323 280 322 294 298 301
264 91 338 278 272 28 66 15 317 306 311 302 237 53 83 48 15 345 130 139 123 263 264 118 57 214 200 214 161 179 206 234 263 287 288 275 293 311 292 303 285 287 303 317
259 43 274 254 78 12 333 324 296 283 285 284 26 319 84 73 76 253 120 92 183 247 125 67 237 164 6 248 5 197 255 231 215 260 296 294 288 258 269 281 286 310 326 283
267 40 243 40 6 295 353 311 299 287 318 75 263 272 120 133 83 24 22 13 350 310 115 298 149 237 305 262 155 195 247 250 264 302 307 306 295 286 293 310 318 312 288 311
183 204 187 350 307 83 289 335 317 320 213 155 247 55 350 52 32 21 22 356 336 318 311 143 304 8 113 213 62 52 179 284 286 288 278 280 276 285 316 301 291 284 308 314
330 135 42 137 345 338 9 357 1 331 357 329 15 52 360 348 49 4 1 353 356 2 22 21 12 40 75 351 3 346 327 344 329 315 300 271 285 291 301 305 303 319 320 300
163 227 194 41 324 28 55 354 17 318 142 262 246 112 208 354 19 2 3 358 0 3 350 58 21 360 307 283 280 329 317 323 330 313 291 299 273 282 318 309 314 314 309 310
341 159 339 118 254 53 356 358 68 287 21 328 351 57 349 15 20 24 17 355 11 21 37 18 33 39 51 15 360 23 16 359 355 336 292 280 284 301 325 321 315 317 314 307
319 338 300 55 75 46 295 259 306 343 19 333 327 41 3 340 3 41 6 40 14 3 1 15 35 24 24 20 5 346 345 343 334 321 312 309 313 335 317 318 321 315 318 314
32 348 323 128 112 11 5 12 360 3 3 329 306 91 8 35 10 55 22 31 30 17 355 360 26 40 32 23 19 15 9 358 341 338 340 341 337 322 325 319 315 321 317 320
355 234 270 122 24 272 228 277 225 264 219 321 293 350 336 57 26 8 346 24 31 47 34 16 16 16 11 14 7 4 356 351 344 341 346 333 326 330 325 317 323 326 324 324
358 286 283 300 250 172 196 194 212 225 267 308 329 338 35 29 40 35 317 37 47 51 27 25 16 4 356 359 355 353 358 337 355 1 343 338 341 333 326 333 336 337 341 338
252 258 272 6 315 300 334 334 334 316 320 337 342 348 11 349 40 184 23 40 42 19 16 14 4 4 356 353 354 351 351 345 4 357 351 354 334 335 338 347 342 340 352 352
152 282 293 307 302 21 20 294 290 323 24 338 1 333 40 21 48 35 49 51 32 17 5 5 359 354 348 357 352 350 354 360 359 359 358 336 334 8 352 352 358 13 14 19
230 309 306 288 315 108 261 258 356 6 5 20 346 358 44 346 78 60 52 30 2 7 2 356 354 351 357 356 351 355 355 350 350 358 350 344 10 347 358 6 358 4 22 23
295 283 291 283 293 290 38 23 56 16 14 349 342 27 12 80 81 70 52 23 334 349 351 348 348 350 352 356 353 355 351 356 1 355 351 9 357 356 6 7 13 28 27 25
214 274 261 271 279 297 83 33 47 354 346 36 14 19 19 68 83 59 70 71 27 359 348 355 348 351 349 360 358 348 349 2 1 349 8 2 356 5 8 2 11 13 24 31
247 236 283 279 288 283 84 96 152 226 278 36 26 23 359 351 32 64 43 29 5 1 359 356 352 351 352 3 350 339 1 358 349 5 13 351 10 22 12 22 8 20 31 36
11 334 299 290 284 59 337 44 256 271 67 5 5 30 31 54 57 56 27 4 8 2 1 357 357 358 12 15 349 353 4 358 356 8 7 358 13 15 11 4 18 15 37 34
172 132 194 246 123 45 232 346 22 40 330 333 10 50 76 58 41 26 2 2 6 359 358 358 1 1 17 14 6 4 17 356 351 21 9 5 11 14 20 14 17 27 36 32
256 18 324 32 33 32 351 70 60 30 324 17 42 71 33 4 26 359 2 7 5 360 356 360 359 4 14 3 6 12 7 351 9 19 22 9 14 18 22 5 23 21 31 41
299 153 330 355 355 329 340 325 317 205 313 46 87 97 23 26 359 4 3 8 357 356 350 359 357 5 7 351 11 14 354 346 25 24 15 5 10 4 21 7 30 9 33 48
21 127 232 255 263 272 297 56 85 105 109 238 161 74 52 18 10 6 7 2 354 349 349 358 356 3 8 356 12 15 1 360 28 17 28 359 7 12 4 19 46 40 37 46
304 27 324 304 53 360 336 48 138 191 220 242 193 182 118 350 10 6 4 354 352 350 352 357 357 3 5 2 12 13 344 9 31 23 11 359 16 32 3 18 39 39 41 36